FW2402 Weather Reports


time (UTC)temp
C
wind
direction
speed
KPH
gust
KPH
rain 1hr
cm
rain 24hr
cm
rain mn
cm
humidity
%
barometer
mb
20260510202017 28 245 3.2 6.4 0.00 0.18 0.18 71 1014.4
20260510201533 28 223 0.0 9.7 0.00 0.18 0.18 73 1014.4
20260510201018 28 0 1.6 9.7 0.00 0.18 0.18 78 1014.5
20260510200517 27 223 1.6 8.0 0.00 0.18 0.18 78 1014.5
20260510200041 27 174 1.6 9.7 0.00 0.18 0.18 79 1014.7
20260510195516 26 0 0.0 9.7 0.03 0.18 0.18 79 1014.7
20260510195016 26 200 1.6 16.1 0.08 0.18 0.18 76 1015.0
20260510194545 27 250 3.2 16.1 0.10 0.18 0.18 73 1015.1
20260510194016 27 216 4.8 16.1 0.10 0.18 0.18 78 1014.9
20260510193516 26 211 1.6 11.3 0.15 0.18 0.18 82 1015.1
20260510193040 27 229 1.6 8.0 0.18 0.18 0.18 82 1015.0
20260510192516 25 113 3.2 17.7 0.18 0.18 0.18 82 1014.8
20260510192016 24 80 9.7 17.7 0.18 0.18 0.18 83 1014.7
20260510191534 23 111 8.0 19.3 0.18 0.18 0.18 81 1015.0
20260510191016 23 122 11.3 27.4 0.18 0.18 0.18 80 1015.2
20260510190519 23 172 12.9 27.4 0.18 0.18 0.18 80 1015.2
20260510190035 23 192 9.7 24.1 0.18 0.18 0.18 85 1015.4
20260510185517 23 186 0.0 6.4 0.15 0.15 0.15 87 1015.6
20260510185019 23 0 1.6 6.4 0.08 0.08 0.08 86 1015.5
20260510184542 24 117 1.6 6.4 0.08 0.08 0.08 87 1015.5
20260510184019 24 221 1.6 19.3 0.05 0.05 0.05 84 1015.1
20260510183517 25 228 3.2 19.3 0.03 0.03 0.03 80 1015.2
20260510183038 26 259 3.2 16.1 0.00 0.00 0.00 74 1015.3
20260510182516 27 244 6.4 16.1 0.00 0.00 0.00 72 1015.1
20260510182016 27 262 9.7 17.7 0.00 0.00 0.00 70 1015.2
20260510181537 27 263 9.7 17.7 0.00 0.00 0.00 69 1015.2
20260510181016 27 252 1.6 17.7 0.00 0.00 0.00 72 1015.1
20260510180516 27 236 4.8 30.6 0.00 0.00 0.00 75 1015.1
20260510180037 26 238 6.4 30.6 0.00 0.00 0.00 77 1015.3
20260510175518 27 238 8.0 20.9 0.00 0.00 0.00 76 1015.4
20260510175016 28 263 4.8 17.7 0.00 0.00 0.00 71 1015.2
20260510174535 30 134 8.0 17.7 0.00 0.00 0.00 65 1014.9
20260510174015 31 142 3.2 9.7 0.00 0.00 0.00 62 1015.0
20260510173516 31 137 1.6 12.9 0.00 0.00 0.00 59 1014.9
20260510173034 31 161 0.0 12.9 0.00 0.00 0.00 58 1014.9
20260510172516 31 275 4.8 19.3 0.00 0.00 0.00 56 1014.9
20260510172016 32 234 3.2 19.3 0.00 0.00 0.00 55 1014.9
20260510171531 32 260 3.2 16.1 0.00 0.00 0.00 55 1014.9
20260510171015 31 271 0.0 8.0 0.00 0.00 0.00 58 1015.0
20260510170517 31 260 3.2 16.1 0.00 0.00 0.00 56 1015.2
20260510170034 32 238 3.2 16.1 0.00 0.00 0.00 56 1015.2
20260510165517 32 252 4.8 16.1 0.00 0.00 0.00 54 1015.4
20260510165017 32 245 3.2 11.3 0.00 0.00 0.00 56 1015.4
20260510164549 32 0 4.8 24.1 0.00 0.00 0.00 57 1015.5
20260510164017 31 0 1.6 24.1 0.00 0.00 0.00 58 1015.4
20260510163516 32 225 9.7 24.1 0.00 0.00 0.00 56 1015.5
20260510163037 32 242 3.2 17.7 0.00 0.00 0.00 56 1015.6
20260510162516 31 216 9.7 17.7 0.00 0.00 0.00 58 1015.7
20260510162016 32 250 1.6 14.5 0.00 0.00 0.00 56 1015.7
20260510161534 32 182 3.2 14.5 0.00 0.00 0.00 56 1015.9
20260510161018 32 259 3.2 12.9 0.00 0.00 0.00 58 1015.8
20260510160516 31 138 4.8 16.1 0.00 0.00 0.00 61 1015.9
20260510160036 31 165 8.0 16.1 0.00 0.00 0.00 60 1015.8
20260510155515 31 267 1.6 14.5 0.00 0.00 0.00 60 1015.8
20260510155016 31 254 4.8 16.1 0.00 0.00 0.00 62 1015.8
20260510154545 31 252 4.8 19.3 0.00 0.00 0.00 62 1015.8
20260510154019 31 202 9.7 19.3 0.00 0.00 0.00 62 1015.8
20260510153517 31 269 3.2 14.5 0.00 0.00 0.00 60 1015.7
20260510153031 32 234 3.2 17.7 0.00 0.00 0.00 59 1015.8
20260510152516 31 147 6.4 17.7 0.00 0.00 0.00 61 1015.7
20260510152017 31 213 8.0 14.5 0.00 0.00 0.00 62 1015.6
20260510151539 31 167 1.6 20.9 0.00 0.00 0.00 62 1015.6
20260510151016 31 293 4.8 20.9 0.00 0.00 0.00 62 1015.8
20260510150518 31 229 4.8 14.5 0.00 0.00 0.00 61 1015.8
20260510150043 30 277 1.6 14.5 0.00 0.00 0.00 65 1015.8
20260510145520 30 191 1.6 14.5 0.00 0.00 0.00 63 1015.7
20260510145019 30 156 1.6 11.3 0.00 0.00 0.00 65 1015.7
20260510144546 30 175 3.2 11.3 0.00 0.00 0.00 66 1015.7
20260510144022 30 165 1.6 9.7 0.00 0.00 0.00 67 1015.8
20260510143520 29 0 1.6 14.5 0.00 0.00 0.00 67 1015.8
20260510143039 29 232 1.6 14.5 0.00 0.00 0.00 66 1015.6
20260510142516 29 223 3.2 14.5 0.00 0.00 0.00 67 1015.6
20260510142019 28 157 1.6 14.5 0.00 0.00 0.00 70 1015.6
20260510141541 28 146 6.4 14.5 0.00 0.00 0.00 69 1015.5
20260510141020 28 115 6.4 14.5 0.00 0.00 0.00 70 1015.6
20260510140520 27 0 6.4 14.5 0.00 0.00 0.00 72 1015.5
20260510140041 27 150 4.8 11.3 0.00 0.00 0.00 73 1015.6
20260510135519 27 128 3.2 11.3 0.00 0.00 0.00 73 1015.7
20260510135019 27 108 4.8 16.1 0.00 0.00 0.00 72 1015.7
20260510134538 27 186 3.2 16.1 0.00 0.00 0.00 73 1015.7
20260510134020 27 138 4.8 12.9 0.00 0.00 0.00 74 1015.5
20260510133519 27 157 3.2 12.9 0.00 0.00 0.00 74 1015.4
20260510133037 26 0 4.8 14.5 0.00 0.00 0.00 75 1015.5
20260510132516 26 264 4.8 14.5 0.00 0.00 0.00 75 1015.5
20260510132016 27 0 1.6 9.7 0.00 0.00 0.00 76 1015.5
20260510131544 26 0 3.2 9.7 0.00 0.00 0.00 77 1015.4
20260510131016 26 151 3.2 9.7 0.00 0.00 0.00 77 1015.4
20260510130520 26 147 1.6 11.3 0.00 0.00 0.00 78 1015.4
20260510130032 26 0 1.6 14.5 0.00 0.00 0.00 80 1015.4
20260510125519 26 173 6.4 14.5 0.00 0.00 0.00 80 1015.4
20260510125019 26 210 3.2 8.0 0.00 0.00 0.00 81 1015.4
20260510124540 25 136 1.6 9.7 0.00 0.00 0.00 83 1015.3
20260510124019 25 145 0.0 9.7 0.00 0.00 0.00 85 1015.3
20260510123520 24 0 0.0 8.0 0.00 0.00 0.00 86 1015.2
20260510123038 24 0 0.0 8.0 0.00 0.00 0.00 87 1015.1
20260510122519 24 0 1.6 9.7 0.00 0.00 0.00 88 1015.1
20260510122019 23 155 3.2 9.7 0.00 0.00 0.00 89 1015.1
20260510121539 23 170 0.0 8.0 0.00 0.00 0.00 90 1015.0
20260510121019 23 165 1.6 6.4 0.00 0.00 0.00 91 1015.0
20260510120518 22 287 0.0 6.4 0.00 0.00 0.00 92 1014.9
20260510120038 22 0 0.0 0.0 0.00 0.00 0.00 93 1015.0
20260510115516 22 0 0.0 0.0 0.00 0.00 0.00 93 1014.8
20260510115017 22 0 0.0 1.6 0.00 0.00 0.00 93 1014.8
20260510114545 22 0 0.0 1.6 0.00 0.00 0.00 93 1014.6
20260510114019 22 0 0.0 3.2 0.00 0.00 0.00 93 1014.4
20260510113515 21 0 0.0 4.8 0.00 0.00 0.00 93 1014.3
20260510113034 21 0 0.0 6.4 0.00 0.00 0.00 93 1014.1
20260510112520 21 140 1.6 6.4 0.00 0.00 0.00 94 1013.9
20260510112016 21 0 1.6 4.8 0.00 0.00 0.00 94 1013.8
20260510111536 21 134 1.6 4.8 0.00 0.00 0.00 94 1013.7
20260510111016 21 0 0.0 3.2 0.00 0.00 0.00 94 1013.8
20260510110516 21 124 0.0 3.2 0.00 0.00 0.00 94 1013.9
20260510110038 21 0 0.0 0.0 0.00 0.00 0.00 94 1013.7
20260510105515 21 0 0.0 0.0 0.00 0.00 0.00 94 1013.7
20260510105019 21 0 0.0 0.0 0.00 0.00 0.00 94 1013.7
20260510104537 21 0 0.0 0.0 0.00 0.00 0.00 93 1013.6
20260510104019 21 0 0.0 0.0 0.00 0.00 0.00 93 1013.6
20260510103518 21 0 0.0 0.0 0.00 0.00 0.00 93 1013.5
20260510103037 21 0 0.0 0.0 0.00 0.00 0.00 93 1013.4
20260510102518 21 0 0.0 0.0 0.00 0.00 0.00 93 1013.4
20260510102020 21 0 0.0 0.0 0.00 0.00 0.00 93 1013.5
20260510101535 21 0 0.0 0.0 0.00 0.00 0.00 93 1013.4
20260510101019 21 0 0.0 0.0 0.00 0.00 0.00 92 1013.3
20260510100516 21 0 0.0 0.0 0.00 0.00 0.00 92 1013.1
20260510100034 21 0 0.0 0.0 0.00 0.00 0.00 92 1013.0
20260510095516 21 0 0.0 0.0 0.00 0.00 0.00 91 1012.9
20260510095017 21 0 0.0 0.0 0.00 0.00 0.00 91 1012.8
20260510094535 22 0 0.0 0.0 0.00 0.00 0.00 91 1012.9
20260510094019 22 0 0.0 1.6 0.00 0.00 0.00 91 1012.8
20260510093519 22 0 0.0 1.6 0.00 0.00 0.00 91 1012.8
20260510093033 22 128 0.0 3.2 0.00 0.00 0.00 91 1012.8
20260510092519 22 128 0.0 4.8 0.00 0.00 0.00 91 1012.8
20260510092017 22 0 1.6 4.8 0.00 0.00 0.00 91 1012.9
20260510091540 22 120 1.6 3.2 0.00 0.00 0.00 91 1012.8
20260510091017 22 127 0.0 0.0 0.00 0.00 0.00 91 1012.7
20260510090517 22 0 0.0 4.8 0.00 0.00 0.00 91 1012.8
20260510090039 22 0 0.0 4.8 0.00 0.00 0.00 91 1012.7
20260510085516 22 127 1.6 4.8 0.00 0.00 0.00 91 1012.7
20260510085017 22 0 0.0 3.2 0.00 0.00 0.00 91 1012.6
20260510084540 22 0 0.0 4.8 0.00 0.00 0.00 91 1012.7
20260510084017 22 0 0.0 6.4 0.00 0.00 0.00 91 1012.5
20260510083520 22 132 0.0 8.0 0.00 0.00 0.00 91 1012.3
20260510083032 22 0 3.2 8.0 0.00 0.00 0.00 91 1012.3
20260510082516 22 186 3.2 8.0 0.00 0.00 0.00 92 1012.2
20260510082016 22 0 1.6 6.4 0.00 0.00 0.00 92 1012.2
20260510081541 22 135 3.2 6.4 0.00 0.00 0.00 92 1012.3
20260510081017 22 110 1.6 6.4 0.00 0.00 0.00 92 1012.1
20260510080518 22 98 1.6 6.4 0.00 0.00 0.00 92 1012.3
20260510080048 22 125 1.6 4.8 0.00 0.00 0.00 92 1012.6
20260510075517 22 107 1.6 6.4 0.00 0.00 0.00 92 1012.5
20260510075017 22 148 1.6 6.4 0.00 0.00 0.00 92 1012.7
20260510074547 22 113 0.0 4.8 0.00 0.00 0.00 92 1012.6
20260510074017 22 138 1.6 6.4 0.00 0.00 0.00 92 1012.7
20260510073517 22 132 1.6 6.4 0.00 0.00 0.00 92 1012.8
20260510073042 22 174 1.6 6.4 0.00 0.00 0.00 92 1012.7
20260510072517 22 138 1.6 6.4 0.00 0.00 0.00 93 1012.7
20260510072020 22 134 3.2 6.4 0.00 0.00 0.00 93 1012.8
20260510071537 22 117 1.6 3.2 0.00 0.00 0.00 93 1012.8
20260510071016 22 117 1.6 3.2 0.00 0.00 0.00 93 1012.8
20260510070517 22 0 0.0 0.0 0.00 0.00 0.00 93 1012.9
20260510070035 22 0 0.0 3.2 0.00 0.00 0.00 93 1013.0
20260510065517 22 0 0.0 3.2 0.00 0.00 0.00 93 1013.1
20260510065017 22 48 0.0 1.6 0.00 0.00 0.00 93 1013.0
20260510064557 22 0 0.0 1.6 0.00 0.00 0.00 93 1013.0
20260510064019 22 0 0.0 1.6 0.00 0.00 0.00 93 1013.0
20260510063517 21 0 0.0 0.0 0.00 0.00 0.00 93 1013.0
20260510063032 22 0 0.0 1.6 0.00 0.00 0.00 93 1013.2
20260510062517 22 0 0.0 1.6 0.00 0.00 0.00 93 1013.3
20260510062017 21 0 0.0 1.6 0.00 0.00 0.00 93 1013.4
20260510061537 21 0 0.0 0.0 0.00 0.00 0.00 93 1013.6
20260510061017 21 0 0.0 0.0 0.00 0.00 0.00 93 1013.6
20260510060517 21 0 0.0 0.0 0.00 0.00 0.00 93 1013.6
20260510060038 21 0 0.0 0.0 0.00 0.00 0.00 93 1013.7
20260510055517 21 0 0.0 0.0 0.00 0.00 0.00 93 1013.8
20260510055017 21 0 0.0 3.2 0.00 0.00 0.00 93 1013.8
20260510054542 21 0 0.0 3.2 0.00 0.00 0.00 93 1013.9
20260510054017 21 0 0.0 3.2 0.00 0.00 0.00 91 1013.8
20260510053522 22 0 0.0 0.0 0.00 0.00 0.00 92 1013.8
20260510053043 22 0 0.0 1.6 0.00 0.00 0.00 93 1013.7
20260510052518 22 0 0.0 1.6 0.00 0.00 0.00 93 1013.8
20260510052018 22 0 0.0 1.6 0.00 0.00 0.00 93 1013.9
20260510051548 22 0 0.0 0.0 0.00 0.00 0.00 92 1013.9
20260510051021 22 0 0.0 0.0 0.00 0.00 0.00 92 1014.0
20260510050517 22 0 0.0 0.0 0.00 0.00 0.00 92 1014.0
20260510050036 22 0 0.0 0.0 0.00 0.00 0.00 92 1014.1
20260510045516 22 0 0.0 0.0 0.00 0.00 0.00 91 1014.1
20260510045018 22 0 0.0 0.0 0.00 0.00 0.00 91 1014.2
20260510044537 22 0 0.0 0.0 0.00 0.00 0.00 91 1014.3
20260510044017 22 0 0.0 0.0 0.00 0.00 0.00 90 1014.3
20260510043517 22 0 0.0 0.0 0.00 0.00 0.00 90 1014.3
20260510043035 23 0 0.0 0.0 0.00 0.00 0.00 90 1014.3
20260510042519 23 0 0.0 0.0 0.00 0.00 0.00 89 1014.4
20260510042019 23 0 0.0 3.2 0.00 0.00 0.00 89 1014.4
20260510041535 23 0 0.0 4.8 0.00 0.00 0.00 88 1014.2
20260510041018 23 25 0.0 4.8 0.00 0.00 0.00 88 1014.3
20260510040517 23 28 1.6 4.8 0.00 0.00 0.00 88 1014.3
20260510040044 23 29 1.6 6.4 0.00 0.00 0.00 88 1014.2
20260510035516 23 87 3.2 9.7 0.00 0.00 0.00 88 1014.1
20260510035020 23 69 3.2 9.7 0.00 0.00 0.00 88 1014.0
20260510034532 23 63 3.2 6.4 0.00 0.00 0.00 88 1014.0
20260510034019 23 59 3.2 8.0 0.00 0.00 0.00 89 1014.1
20260510033516 23 88 3.2 8.0 0.00 0.00 0.00 89 1014.1
20260510033045 23 98 3.2 8.0 0.00 0.00 0.00 89 1014.1
20260510032516 23 94 1.6 4.8 0.00 0.00 0.00 89 1014.1
20260510032017 23 108 0.0 3.2 0.00 0.00 0.00 90 1014.2
20260510031537 23 0 0.0 0.0 0.00 0.00 0.00 89 1014.2
20260510031018 23 0 0.0 1.6 0.00 0.00 0.00 88 1014.3
20260510030518 23 0 0.0 1.6 0.00 0.00 0.00 88 1014.3
20260510030037 23 0 0.0 3.2 0.00 0.00 0.00 88 1014.2
20260510025519 23 0 0.0 4.8 0.00 0.00 0.00 87 1014.1
20260510025020 24 0 0.0 6.4 0.00 0.00 0.00 86 1014.0
20260510024536 24 0 1.6 6.4 0.00 0.00 0.00 87 1014.1
20260510024018 24 82 1.6 6.4 0.00 0.00 0.00 87 1014.1
20260510023520 24 68 1.6 4.8 0.00 0.00 0.00 86 1014.1
20260510023034 24 78 3.2 4.8 0.00 0.00 0.00 86 1014.0
20260510022520 24 72 1.6 6.4 0.00 0.00 0.00 85 1013.9
20260510022017 24 72 1.6 8.0 0.00 0.00 0.00 85 1013.9
20260510021543 24 59 3.2 8.0 0.00 0.00 0.00 84 1013.9
20260510021018 24 77 3.2 8.0 0.00 0.00 0.00 83 1013.8
20260510020516 25 84 3.2 8.0 0.00 0.00 0.00 82 1013.8
20260510020037 25 65 3.2 8.0 0.00 0.00 0.00 82 1013.8
20260510015516 24 49 3.2 6.4 0.00 0.00 0.00 82 1013.7
20260510015016 24 0 0.0 0.0 0.00 0.00 0.00 83 1013.7
20260510014536 24 0 0.0 0.0 0.00 0.00 0.00 82 1013.7
20260510014017 24 0 0.0 0.0 0.00 0.00 0.00 80 1013.6
20260510013517 24 0 0.0 0.0 0.00 0.00 0.00 80 1013.6
20260510013036 25 0 0.0 0.0 0.00 0.00 0.00 78 1013.5
20260510012517 25 0 0.0 0.0 0.00 0.00 0.00 77 1013.4
20260510012017 25 0 0.0 0.0 0.00 0.00 0.00 76 1013.4
20260510011538 25 0 0.0 0.0 0.00 0.00 0.00 75 1013.3
20260510011016 25 0 0.0 0.0 0.00 0.00 0.00 76 1013.2
20260510010516 25 0 0.0 0.0 0.00 0.00 0.00 75 1013.3
20260510010045 26 0 0.0 0.0 0.00 0.00 0.00 75 1013.3
20260510005517 26 0 0.0 0.0 0.00 0.00 0.00 75 1013.1
20260510005020 26 0 0.0 0.0 0.00 0.00 0.00 75 1013.2
20260510004541 26 0 0.0 0.0 0.00 0.00 0.00 74 1013.2
20260510004016 26 0 0.0 3.2 0.00 0.00 0.00 74 1013.0
20260510003516 26 0 0.0 3.2 0.00 0.00 0.00 74 1013.0
20260510003046 26 0 0.0 6.4 0.00 0.00 0.00 74 1012.9
20260510002516 26 0 0.0 11.3 0.00 0.00 0.00 74 1012.8
20260510002016 26 286 3.2 11.3 0.00 0.00 0.00 73 1012.9
20260510001537 26 284 4.8 14.5 0.00 0.00 0.00 73 1012.7
20260510001016 26 310 3.2 14.5 0.00 0.00 0.00 72 1012.6
20260510000516 26 271 4.8 19.3 0.00 0.00 0.00 71 1012.4
20260510000037 27 277 3.2 19.3 0.00 0.00 0.00 70 1012.3
20260509235519 27 288 6.4 19.3 0.00 0.00 0.00 70 1012.3
20260509235017 27 285 6.4 17.7 0.00 0.00 0.00 69 1012.3
20260509234534 27 286 6.4 17.7 0.00 0.00 0.00 69 1012.3
20260509234018 27 273 8.0 17.7 0.00 0.00 0.00 68 1012.3
20260509233516 27 262 6.4 17.7 0.00 0.00 0.00 67 1012.2
20260509233034 28 316 4.8 12.9 0.00 0.00 0.00 67 1012.2
20260509232517 28 285 4.8 17.7 0.00 0.00 0.00 65 1012.0
20260509232019 28 268 4.8 20.9 0.00 0.00 0.00 64 1012.0
20260509231538 28 245 11.3 22.5 0.00 0.00 0.00 63 1011.9
20260509231016 28 269 12.9 25.7 0.00 0.00 0.00 63 1011.8
20260509230516 28 289 14.5 25.7 0.00 0.00 0.00 62 1011.7
20260509230032 28 281 9.7 25.7 0.00 0.00 0.00 61 1011.6
20260509225516 29 269 11.3 22.5 0.00 0.00 0.00 60 1011.6
20260509225019 29 253 12.9 24.1 0.00 0.00 0.00 59 1011.5
20260509224537 30 286 9.7 24.1 0.00 0.00 0.00 59 1011.4
20260509224020 30 269 11.3 24.1 0.00 0.00 0.00 58 1011.2
20260509223520 30 280 8.0 20.9 0.00 0.00 0.00 58 1011.1
20260509223035 30 256 12.9 22.5 0.00 0.00 0.00 58 1011.0
20260509222517 30 261 12.9 22.5 0.00 0.00 0.00 58 1011.0
20260509222016 30 281 9.7 19.3 0.00 0.00 0.00 58 1010.9
20260509221535 30 261 8.0 20.9 0.00 0.00 0.00 57 1010.9
20260509221020 31 263 8.0 20.9 0.00 0.00 0.00 57 1010.9
20260509220519 31 290 9.7 17.7 0.00 0.00 0.00 56 1010.8
20260509220044 31 19 8.0 17.7 0.00 0.00 0.00 57 1010.7
20260509215519 31 272 6.4 17.7 0.00 0.00 0.00 58 1010.7
20260509215020 31 287 9.7 17.7 0.00 0.00 0.00 58 1010.7
20260509214556 31 256 6.4 16.1 0.00 0.00 0.00 58 1010.7
20260509214022 31 275 6.4 16.1 0.00 0.00 0.00 58 1010.6
20260509213516 31 280 8.0 16.1 0.00 0.00 0.00 58 1010.6
20260509213041 31 288 6.4 16.1 0.00 0.00 0.00 57 1010.5
20260509212516 31 281 4.8 16.1 0.00 0.00 0.00 57 1010.4
20260509212017 31 298 8.0 16.1 0.00 0.00 0.00 55 1010.5
20260509211538 32 294 3.2 16.1 0.00 0.00 0.00 55 1010.3
20260509211016 32 265 8.0 19.3 0.00 0.00 0.00 55 1010.3
20260509210516 31 279 9.7 19.3 0.00 0.00 0.00 55 1010.2
20260509210045 31 282 9.7 25.7 0.00 0.00 0.00 55 1010.3
20260509205516 32 81 9.7 25.7 0.00 0.00 0.00 54 1010.2
20260509205016 32 265 14.5 22.5 0.00 0.00 0.00 52 1010.1
20260509204536 32 259 11.3 22.5 0.00 0.00 0.00 53 1010.1
20260509204017 32 279 16.1 22.5 0.00 0.00 0.00 52 1010.2
20260509203518 32 274 8.0 17.7 0.00 0.00 0.00 54 1010.2
20260509203038 32 282 9.7 27.4 0.00 0.00 0.00 51 1010.2
20260509202518 32 298 16.1 27.4 0.00 0.00 0.00 55 1010.1